owner,sensor,date,latitude,longitude,air_temperature,qcFlag 
WAVCIS,ioos:station:WAVCIS:CSI09:1,2016-02-01T00:00:00Z,29.1015,-89.9782,14.99,11111222 
WAVCIS,ioos:station:WAVCIS:CSI09:1,2016-02-01T01:00:00Z,29.1015,-89.9782,14.13,11111222 
WAVCIS,ioos:station:WAVCIS:CSI09:1,2016-02-01T02:00:00Z,29.1015,-89.9782,14.79,11111222 
WAVCIS,ioos:station:WAVCIS:CSI09:1,2016-02-01T03:00:00Z,29.1015,-89.9782,13.7,11111222 
WAVCIS,ioos:station:WAVCIS:CSI09:1,2016-02-01T04:00:00Z,29.1015,-89.9782,13.44,11111222 
WAVCIS,ioos:station:WAVCIS:CSI09:1,2016-02-01T05:00:00Z,29.1015,-89.9782,13.48,11111222 
WAVCIS,ioos:station:WAVCIS:CSI09:1,2016-02-01T06:00:00Z,29.1015,-89.9782,13.03,11111222 
WAVCIS,ioos:station:WAVCIS:CSI09:1,2016-02-01T07:00:00Z,29.1015,-89.9782,13.98,11111222 
WAVCIS,ioos:station:WAVCIS:CSI09:1,2016-02-01T08:00:00Z,29.1015,-89.9782,16.31,11111222 
WAVCIS,ioos:station:WAVCIS:CSI09:1,2016-02-01T09:00:00Z,29.1015,-89.9782,16.45,11111222 
WAVCIS,ioos:station:WAVCIS:CSI09:1,2016-02-01T10:00:00Z,29.1015,-89.9782,17.38,11111222 
WAVCIS,ioos:station:WAVCIS:CSI09:1,2016-02-01T11:00:00Z,29.1015,-89.9782,17.76,11111222 
WAVCIS,ioos:station:WAVCIS:CSI09:1,2016-02-01T12:00:00Z,29.1015,-89.9782,17.31,11111222 
WAVCIS,ioos:station:WAVCIS:CSI09:1,2016-02-01T13:00:00Z,29.1015,-89.9782,16.56,11111222 
WAVCIS,ioos:station:WAVCIS:CSI09:1,2016-02-01T14:00:00Z,29.1015,-89.9782,16.28,11111222 
WAVCIS,ioos:station:WAVCIS:CSI09:1,2016-02-01T15:00:00Z,29.1015,-89.9782,17.01,11111222 
WAVCIS,ioos:station:WAVCIS:CSI09:1,2016-02-01T16:00:00Z,29.1015,-89.9782,16.1,11111222 
WAVCIS,ioos:station:WAVCIS:CSI09:1,2016-02-01T17:00:00Z,29.1015,-89.9782,16.19,11111222 
WAVCIS,ioos:station:WAVCIS:CSI09:1,2016-02-01T18:00:00Z,29.1015,-89.9782,16.39,11111222 
WAVCIS,ioos:station:WAVCIS:CSI09:1,2016-02-01T19:00:00Z,29.1015,-89.9782,16.44,11111222 
WAVCIS,ioos:station:WAVCIS:CSI09:1,2016-02-01T20:00:00Z,29.1015,-89.9782,16.29,11111222 
WAVCIS,ioos:station:WAVCIS:CSI09:1,2016-02-01T21:00:00Z,29.1015,-89.9782,15.9,11111222 
WAVCIS,ioos:station:WAVCIS:CSI09:1,2016-02-01T22:00:00Z,29.1015,-89.9782,16.13,11111222 
WAVCIS,ioos:station:WAVCIS:CSI09:1,2016-02-01T23:00:00Z,29.1015,-89.9782,16.2,11111222 
WAVCIS,ioos:station:WAVCIS:CSI09:1,2016-02-02T00:00:00Z,29.1015,-89.9782,15.64,11111222 
WAVCIS,ioos:station:WAVCIS:CSI09:1,2016-02-02T01:00:00Z,29.1015,-89.9782,16.26,11111222 
WAVCIS,ioos:station:WAVCIS:CSI09:1,2016-02-02T02:00:00Z,29.1015,-89.9782,16.4,11111222 
WAVCIS,ioos:station:WAVCIS:CSI09:1,2016-02-02T03:00:00Z,29.1015,-89.9782,17.09,11111222 
WAVCIS,ioos:station:WAVCIS:CSI09:1,2016-02-02T04:00:00Z,29.1015,-89.9782,16.47,11111222 
WAVCIS,ioos:station:WAVCIS:CSI09:1,2016-02-02T05:00:00Z,29.1015,-89.9782,16.72,11111222 
WAVCIS,ioos:station:WAVCIS:CSI09:1,2016-02-02T06:00:00Z,29.1015,-89.9782,16.39,11111222 
WAVCIS,ioos:station:WAVCIS:CSI09:1,2016-02-02T07:00:00Z,29.1015,-89.9782,16.28,11111222 
WAVCIS,ioos:station:WAVCIS:CSI09:1,2016-02-02T08:00:00Z,29.1015,-89.9782,16.1,11111222 
WAVCIS,ioos:station:WAVCIS:CSI09:1,2016-02-02T09:00:00Z,29.1015,-89.9782,17.16,11111222 
WAVCIS,ioos:station:WAVCIS:CSI09:1,2016-02-02T10:00:00Z,29.1015,-89.9782,16.67,11111222 
WAVCIS,ioos:station:WAVCIS:CSI09:1,2016-02-02T11:00:00Z,29.1015,-89.9782,16.27,11111222 
WAVCIS,ioos:station:WAVCIS:CSI09:1,2016-02-02T12:00:00Z,29.1015,-89.9782,16.97,11111222 
WAVCIS,ioos:station:WAVCIS:CSI09:1,2016-02-02T13:00:00Z,29.1015,-89.9782,13.85,11111222 
WAVCIS,ioos:station:WAVCIS:CSI09:1,2016-02-02T14:00:00Z,29.1015,-89.9782,23.28,11111222 
WAVCIS,ioos:station:WAVCIS:CSI09:1,2016-02-02T15:00:00Z,29.1015,-89.9782,14.28,11111222 
WAVCIS,ioos:station:WAVCIS:CSI09:1,2016-02-02T16:00:00Z,29.1015,-89.9782,8.57,11111222 
WAVCIS,ioos:station:WAVCIS:CSI09:1,2016-02-02T17:00:00Z,29.1015,-89.9782,8.63,11111222 
WAVCIS,ioos:station:WAVCIS:CSI09:1,2016-02-02T18:00:00Z,29.1015,-89.9782,11.45,11111222 
WAVCIS,ioos:station:WAVCIS:CSI09:1,2016-02-02T19:00:00Z,29.1015,-89.9782,14.22,11111222 
WAVCIS,ioos:station:WAVCIS:CSI09:1,2016-02-02T20:00:00Z,29.1015,-89.9782,12.39,11111222 
WAVCIS,ioos:station:WAVCIS:CSI09:1,2016-02-02T21:00:00Z,29.1015,-89.9782,12.58,11111222 
WAVCIS,ioos:station:WAVCIS:CSI09:1,2016-02-02T22:00:00Z,29.1015,-89.9782,7.52,11111222 
WAVCIS,ioos:station:WAVCIS:CSI09:1,2016-02-02T23:00:00Z,29.1015,-89.9782,8.26,11111222 
WAVCIS,ioos:station:WAVCIS:CSI09:1,2016-02-03T00:00:00Z,29.1015,-89.9782,9.04,11111222 
WAVCIS,ioos:station:WAVCIS:CSI09:1,2016-02-03T01:00:00Z,29.1015,-89.9782,10.17,11111222 
WAVCIS,ioos:station:WAVCIS:CSI09:1,2016-02-03T02:00:00Z,29.1015,-89.9782,8.55,11111222 
WAVCIS,ioos:station:WAVCIS:CSI09:1,2016-02-03T03:00:00Z,29.1015,-89.9782,11.86,11111222 
WAVCIS,ioos:station:WAVCIS:CSI09:1,2016-02-03T04:00:00Z,29.1015,-89.9782,11.03,11111222 
WAVCIS,ioos:station:WAVCIS:CSI09:1,2016-02-03T05:00:00Z,29.1015,-89.9782,9.47,11111222 
WAVCIS,ioos:station:WAVCIS:CSI09:1,2016-02-03T06:00:00Z,29.1015,-89.9782,10.89,11111222 
WAVCIS,ioos:station:WAVCIS:CSI09:1,2016-02-03T07:00:00Z,29.1015,-89.9782,12.08,11111222 
WAVCIS,ioos:station:WAVCIS:CSI09:1,2016-02-03T08:00:00Z,29.1015,-89.9782,11.41,11111222 
WAVCIS,ioos:station:WAVCIS:CSI09:1,2016-02-03T09:00:00Z,29.1015,-89.9782,5.115,11111222 
WAVCIS,ioos:station:WAVCIS:CSI09:1,2016-02-03T10:00:00Z,29.1015,-89.9782,9.67,11111222 
WAVCIS,ioos:station:WAVCIS:CSI09:1,2016-02-03T11:00:00Z,29.1015,-89.9782,9.84,11111222 
WAVCIS,ioos:station:WAVCIS:CSI09:1,2016-02-03T12:00:00Z,29.1015,-89.9782,9.69,11111222 
WAVCIS,ioos:station:WAVCIS:CSI09:1,2016-02-03T13:00:00Z,29.1015,-89.9782,11.1,11111222 
WAVCIS,ioos:station:WAVCIS:CSI09:1,2016-02-03T14:00:00Z,29.1015,-89.9782,11.7,11111222 
WAVCIS,ioos:station:WAVCIS:CSI09:1,2016-02-03T15:00:00Z,29.1015,-89.9782,12.39,11111222 
WAVCIS,ioos:station:WAVCIS:CSI09:1,2016-02-03T16:00:00Z,29.1015,-89.9782,8.92,11111222 
WAVCIS,ioos:station:WAVCIS:CSI09:1,2016-02-03T17:00:00Z,29.1015,-89.9782,10.8,11111222 
WAVCIS,ioos:station:WAVCIS:CSI09:1,2016-02-03T18:00:00Z,29.1015,-89.9782,12.97,11111222 
WAVCIS,ioos:station:WAVCIS:CSI09:1,2016-02-03T19:00:00Z,29.1015,-89.9782,13.64,11111222 
WAVCIS,ioos:station:WAVCIS:CSI09:1,2016-02-03T20:00:00Z,29.1015,-89.9782,14.01,11111222 
WAVCIS,ioos:station:WAVCIS:CSI09:1,2016-02-03T21:00:00Z,29.1015,-89.9782,14.36,11111222 
WAVCIS,ioos:station:WAVCIS:CSI09:1,2016-02-03T22:00:00Z,29.1015,-89.9782,14.49,11111222 
WAVCIS,ioos:station:WAVCIS:CSI09:1,2016-02-03T23:00:00Z,29.1015,-89.9782,15.2,11111222 
WAVCIS,ioos:station:WAVCIS:CSI09:1,2016-02-04T00:00:00Z,29.1015,-89.9782,15.25,11111222 
WAVCIS,ioos:station:WAVCIS:CSI09:1,2016-02-04T01:00:00Z,29.1015,-89.9782,15.32,11111222 
WAVCIS,ioos:station:WAVCIS:CSI09:1,2016-02-04T02:00:00Z,29.1015,-89.9782,15.14,11111222 
WAVCIS,ioos:station:WAVCIS:CSI09:1,2016-02-04T03:00:00Z,29.1015,-89.9782,15.12,11111222 
WAVCIS,ioos:station:WAVCIS:CSI09:1,2016-02-04T04:00:00Z,29.1015,-89.9782,14.82,11111222 
WAVCIS,ioos:station:WAVCIS:CSI09:1,2016-02-04T05:00:00Z,29.1015,-89.9782,14.37,11111222 
WAVCIS,ioos:station:WAVCIS:CSI09:1,2016-02-04T06:00:00Z,29.1015,-89.9782,13.68,11111222 
WAVCIS,ioos:station:WAVCIS:CSI09:1,2016-02-04T07:00:00Z,29.1015,-89.9782,12.63,11111222 
WAVCIS,ioos:station:WAVCIS:CSI09:1,2016-02-04T08:00:00Z,29.1015,-89.9782,11.96,11111222 
WAVCIS,ioos:station:WAVCIS:CSI09:1,2016-02-04T09:00:00Z,29.1015,-89.9782,11.42,11111222 
WAVCIS,ioos:station:WAVCIS:CSI09:1,2016-02-04T10:00:00Z,29.1015,-89.9782,10.91,11111222 
WAVCIS,ioos:station:WAVCIS:CSI09:1,2016-02-04T11:00:00Z,29.1015,-89.9782,10.27,11111222 
WAVCIS,ioos:station:WAVCIS:CSI09:1,2016-02-04T12:00:00Z,29.1015,-89.9782,9.61,11111222 
WAVCIS,ioos:station:WAVCIS:CSI09:1,2016-02-04T13:00:00Z,29.1015,-89.9782,9.14,11111222 
WAVCIS,ioos:station:WAVCIS:CSI09:1,2016-02-04T14:00:00Z,29.1015,-89.9782,8.92,11111222 
WAVCIS,ioos:station:WAVCIS:CSI09:1,2016-02-04T15:00:00Z,29.1015,-89.9782,8.77,11111222 
WAVCIS,ioos:station:WAVCIS:CSI09:1,2016-02-04T16:00:00Z,29.1015,-89.9782,8.72,11111222 
WAVCIS,ioos:station:WAVCIS:CSI09:1,2016-02-04T17:00:00Z,29.1015,-89.9782,8.89,11111222 
WAVCIS,ioos:station:WAVCIS:CSI09:1,2016-02-04T18:00:00Z,29.1015,-89.9782,9.26,11111222 
WAVCIS,ioos:station:WAVCIS:CSI09:1,2016-02-04T19:00:00Z,29.1015,-89.9782,9.44,11111222 
WAVCIS,ioos:station:WAVCIS:CSI09:1,2016-02-04T20:00:00Z,29.1015,-89.9782,10.22,11111222 
WAVCIS,ioos:station:WAVCIS:CSI09:1,2016-02-04T21:00:00Z,29.1015,-89.9782,10.34,11111222 
WAVCIS,ioos:station:WAVCIS:CSI09:1,2016-02-04T22:00:00Z,29.1015,-89.9782,10.65,11111222 
WAVCIS,ioos:station:WAVCIS:CSI09:1,2016-02-04T23:00:00Z,29.1015,-89.9782,10.77,11111222 
WAVCIS,ioos:station:WAVCIS:CSI09:1,2016-02-05T00:00:00Z,29.1015,-89.9782,10.93,11111222 
WAVCIS,ioos:station:WAVCIS:CSI09:1,2016-02-05T01:00:00Z,29.1015,-89.9782,11.0,11111222 
WAVCIS,ioos:station:WAVCIS:CSI09:1,2016-02-05T02:00:00Z,29.1015,-89.9782,10.55,11111222 
WAVCIS,ioos:station:WAVCIS:CSI09:1,2016-02-05T03:00:00Z,29.1015,-89.9782,10.06,11111222 
WAVCIS,ioos:station:WAVCIS:CSI09:1,2016-02-05T04:00:00Z,29.1015,-89.9782,9.5,11111222 
WAVCIS,ioos:station:WAVCIS:CSI09:1,2016-02-05T05:00:00Z,29.1015,-89.9782,8.75,11111222 
WAVCIS,ioos:station:WAVCIS:CSI09:1,2016-02-05T06:00:00Z,29.1015,-89.9782,8.17,11111222 
WAVCIS,ioos:station:WAVCIS:CSI09:1,2016-02-05T07:00:00Z,29.1015,-89.9782,7.67,11111222 
WAVCIS,ioos:station:WAVCIS:CSI09:1,2016-02-05T08:00:00Z,29.1015,-89.9782,7.44,11111222 
WAVCIS,ioos:station:WAVCIS:CSI09:1,2016-02-05T09:00:00Z,29.1015,-89.9782,6.84,11111222 
WAVCIS,ioos:station:WAVCIS:CSI09:1,2016-02-05T10:00:00Z,29.1015,-89.9782,6.33,11111222 
WAVCIS,ioos:station:WAVCIS:CSI09:1,2016-02-05T11:00:00Z,29.1015,-89.9782,6.25,11111222 
WAVCIS,ioos:station:WAVCIS:CSI09:1,2016-02-05T12:00:00Z,29.1015,-89.9782,6.13,11111222 
WAVCIS,ioos:station:WAVCIS:CSI09:1,2016-02-05T13:00:00Z,29.1015,-89.9782,6.065,11111222 
WAVCIS,ioos:station:WAVCIS:CSI09:1,2016-02-05T14:00:00Z,29.1015,-89.9782,6.2,11111222 
WAVCIS,ioos:station:WAVCIS:CSI09:1,2016-02-05T15:00:00Z,29.1015,-89.9782,6.15,11111222 
WAVCIS,ioos:station:WAVCIS:CSI09:1,2016-02-05T16:00:00Z,29.1015,-89.9782,6.56,11111222 
WAVCIS,ioos:station:WAVCIS:CSI09:1,2016-02-05T17:00:00Z,29.1015,-89.9782,6.9,11111222 
WAVCIS,ioos:station:WAVCIS:CSI09:1,2016-02-05T18:00:00Z,29.1015,-89.9782,7.43,11111222 
WAVCIS,ioos:station:WAVCIS:CSI09:1,2016-02-05T19:00:00Z,29.1015,-89.9782,7.85,11111222 
WAVCIS,ioos:station:WAVCIS:CSI09:1,2016-02-05T20:00:00Z,29.1015,-89.9782,8.26,11111222 
WAVCIS,ioos:station:WAVCIS:CSI09:1,2016-02-05T21:00:00Z,29.1015,-89.9782,8.59,11111222 
WAVCIS,ioos:station:WAVCIS:CSI09:1,2016-02-05T22:00:00Z,29.1015,-89.9782,8.89,11111222 
WAVCIS,ioos:station:WAVCIS:CSI09:1,2016-02-05T23:00:00Z,29.1015,-89.9782,9.17,11111222 
WAVCIS,ioos:station:WAVCIS:CSI09:1,2016-02-06T00:00:00Z,29.1015,-89.9782,9.07,11111222 
WAVCIS,ioos:station:WAVCIS:CSI09:1,2016-02-06T01:00:00Z,29.1015,-89.9782,9.15,11111222 
WAVCIS,ioos:station:WAVCIS:CSI09:1,2016-02-06T02:00:00Z,29.1015,-89.9782,9.33,11111222 
WAVCIS,ioos:station:WAVCIS:CSI09:1,2016-02-06T03:00:00Z,29.1015,-89.9782,9.63,11111222 
WAVCIS,ioos:station:WAVCIS:CSI09:1,2016-02-06T04:00:00Z,29.1015,-89.9782,9.84,11111222 
WAVCIS,ioos:station:WAVCIS:CSI09:1,2016-02-06T05:00:00Z,29.1015,-89.9782,10.14,11111222 
WAVCIS,ioos:station:WAVCIS:CSI09:1,2016-02-06T06:00:00Z,29.1015,-89.9782,10.18,11111222 
WAVCIS,ioos:station:WAVCIS:CSI09:1,2016-02-06T07:00:00Z,29.1015,-89.9782,9.91,11111222 
WAVCIS,ioos:station:WAVCIS:CSI09:1,2016-02-06T08:00:00Z,29.1015,-89.9782,9.91,11111222 
WAVCIS,ioos:station:WAVCIS:CSI09:1,2016-02-06T09:00:00Z,29.1015,-89.9782,10.01,11111222 
WAVCIS,ioos:station:WAVCIS:CSI09:1,2016-02-06T10:00:00Z,29.1015,-89.9782,9.61,11111222 
WAVCIS,ioos:station:WAVCIS:CSI09:1,2016-02-06T11:00:00Z,29.1015,-89.9782,9.11,11111222 
WAVCIS,ioos:station:WAVCIS:CSI09:1,2016-02-06T12:00:00Z,29.1015,-89.9782,9.03,11111222 
WAVCIS,ioos:station:WAVCIS:CSI09:1,2016-02-06T13:00:00Z,29.1015,-89.9782,9.59,11111222 
WAVCIS,ioos:station:WAVCIS:CSI09:1,2016-02-06T14:00:00Z,29.1015,-89.9782,9.84,11111222 
WAVCIS,ioos:station:WAVCIS:CSI09:1,2016-02-06T15:00:00Z,29.1015,-89.9782,10.06,11111222 
WAVCIS,ioos:station:WAVCIS:CSI09:1,2016-02-06T16:00:00Z,29.1015,-89.9782,10.29,11111222 
WAVCIS,ioos:station:WAVCIS:CSI09:1,2016-02-06T17:00:00Z,29.1015,-89.9782,10.45,11111222 
WAVCIS,ioos:station:WAVCIS:CSI09:1,2016-02-06T18:00:00Z,29.1015,-89.9782,10.28,11111222 
WAVCIS,ioos:station:WAVCIS:CSI09:1,2016-02-06T19:00:00Z,29.1015,-89.9782,10.1,11111222 
WAVCIS,ioos:station:WAVCIS:CSI09:1,2016-02-06T20:00:00Z,29.1015,-89.9782,10.32,11111222 
WAVCIS,ioos:station:WAVCIS:CSI09:1,2016-02-06T21:00:00Z,29.1015,-89.9782,10.28,11111222 
WAVCIS,ioos:station:WAVCIS:CSI09:1,2016-02-06T22:00:00Z,29.1015,-89.9782,10.21,11111222 
WAVCIS,ioos:station:WAVCIS:CSI09:1,2016-02-06T23:00:00Z,29.1015,-89.9782,10.41,11111222 
WAVCIS,ioos:station:WAVCIS:CSI09:1,2016-02-07T00:00:00Z,29.1015,-89.9782,10.37,11111222 
WAVCIS,ioos:station:WAVCIS:CSI09:1,2016-02-07T01:00:00Z,29.1015,-89.9782,10.48,11111222 
WAVCIS,ioos:station:WAVCIS:CSI09:1,2016-02-07T02:00:00Z,29.1015,-89.9782,10.58,11111222 
WAVCIS,ioos:station:WAVCIS:CSI09:1,2016-02-07T03:00:00Z,29.1015,-89.9782,10.88,11111222 
WAVCIS,ioos:station:WAVCIS:CSI09:1,2016-02-07T04:00:00Z,29.1015,-89.9782,10.58,11111222 
WAVCIS,ioos:station:WAVCIS:CSI09:1,2016-02-07T05:00:00Z,29.1015,-89.9782,10.4,11111222 
WAVCIS,ioos:station:WAVCIS:CSI09:1,2016-02-07T06:00:00Z,29.1015,-89.9782,10.57,11111222 
WAVCIS,ioos:station:WAVCIS:CSI09:1,2016-02-07T07:00:00Z,29.1015,-89.9782,10.37,11111222 
WAVCIS,ioos:station:WAVCIS:CSI09:1,2016-02-07T08:00:00Z,29.1015,-89.9782,10.02,11111222 
WAVCIS,ioos:station:WAVCIS:CSI09:1,2016-02-07T09:00:00Z,29.1015,-89.9782,9.63,11111222 
WAVCIS,ioos:station:WAVCIS:CSI09:1,2016-02-07T10:00:00Z,29.1015,-89.9782,9.03,11111222 
WAVCIS,ioos:station:WAVCIS:CSI09:1,2016-02-07T11:00:00Z,29.1015,-89.9782,8.54,11111222 
WAVCIS,ioos:station:WAVCIS:CSI09:1,2016-02-07T12:00:00Z,29.1015,-89.9782,9.27,11111222 
WAVCIS,ioos:station:WAVCIS:CSI09:1,2016-02-07T13:00:00Z,29.1015,-89.9782,9.28,11111222 
WAVCIS,ioos:station:WAVCIS:CSI09:1,2016-02-07T14:00:00Z,29.1015,-89.9782,8.67,11111222 
WAVCIS,ioos:station:WAVCIS:CSI09:1,2016-02-07T15:00:00Z,29.1015,-89.9782,9.15,11111222 
WAVCIS,ioos:station:WAVCIS:CSI09:1,2016-02-07T16:00:00Z,29.1015,-89.9782,9.52,11111222 
WAVCIS,ioos:station:WAVCIS:CSI09:1,2016-02-07T17:00:00Z,29.1015,-89.9782,9.74,11111222 
WAVCIS,ioos:station:WAVCIS:CSI09:1,2016-02-07T18:00:00Z,29.1015,-89.9782,10.11,11111222 
WAVCIS,ioos:station:WAVCIS:CSI09:1,2016-02-07T19:00:00Z,29.1015,-89.9782,10.5,11111222 
WAVCIS,ioos:station:WAVCIS:CSI09:1,2016-02-07T20:00:00Z,29.1015,-89.9782,12.24,11111222 
WAVCIS,ioos:station:WAVCIS:CSI09:1,2016-02-07T21:00:00Z,29.1015,-89.9782,13.96,11111222 
WAVCIS,ioos:station:WAVCIS:CSI09:1,2016-02-07T22:00:00Z,29.1015,-89.9782,11.52,11111222 
WAVCIS,ioos:station:WAVCIS:CSI09:1,2016-02-07T23:00:00Z,29.1015,-89.9782,11.97,11111222 
WAVCIS,ioos:station:WAVCIS:CSI09:1,2016-02-08T00:00:00Z,29.1015,-89.9782,11.05,11111222 
WAVCIS,ioos:station:WAVCIS:CSI09:1,2016-02-08T01:00:00Z,29.1015,-89.9782,11.28,11111222 
WAVCIS,ioos:station:WAVCIS:CSI09:1,2016-02-08T02:00:00Z,29.1015,-89.9782,11.61,11111222 
WAVCIS,ioos:station:WAVCIS:CSI09:1,2016-02-08T03:00:00Z,29.1015,-89.9782,11.64,11111222 
WAVCIS,ioos:station:WAVCIS:CSI09:1,2016-02-08T04:00:00Z,29.1015,-89.9782,11.64,11111222 
WAVCIS,ioos:station:WAVCIS:CSI09:1,2016-02-08T05:00:00Z,29.1015,-89.9782,11.63,11111222 
WAVCIS,ioos:station:WAVCIS:CSI09:1,2016-02-08T06:00:00Z,29.1015,-89.9782,11.53,11111222 
WAVCIS,ioos:station:WAVCIS:CSI09:1,2016-02-08T07:00:00Z,29.1015,-89.9782,11.04,11111222 
WAVCIS,ioos:station:WAVCIS:CSI09:1,2016-02-08T08:00:00Z,29.1015,-89.9782,11.06,11111222 
WAVCIS,ioos:station:WAVCIS:CSI09:1,2016-02-08T09:00:00Z,29.1015,-89.9782,11.12,11111222 
WAVCIS,ioos:station:WAVCIS:CSI09:1,2016-02-08T10:00:00Z,29.1015,-89.9782,11.12,11111222 
WAVCIS,ioos:station:WAVCIS:CSI09:1,2016-02-08T11:00:00Z,29.1015,-89.9782,11.41,11111222 
WAVCIS,ioos:station:WAVCIS:CSI09:1,2016-02-08T12:00:00Z,29.1015,-89.9782,11.45,11111222 
WAVCIS,ioos:station:WAVCIS:CSI09:1,2016-02-08T13:00:00Z,29.1015,-89.9782,11.72,11111222 
WAVCIS,ioos:station:WAVCIS:CSI09:1,2016-02-08T14:00:00Z,29.1015,-89.9782,11.78,11111222 
WAVCIS,ioos:station:WAVCIS:CSI09:1,2016-02-08T15:00:00Z,29.1015,-89.9782,11.83,11111222 
WAVCIS,ioos:station:WAVCIS:CSI09:1,2016-02-08T16:00:00Z,29.1015,-89.9782,11.5,11111222 
WAVCIS,ioos:station:WAVCIS:CSI09:1,2016-02-08T17:00:00Z,29.1015,-89.9782,11.62,11111222 
WAVCIS,ioos:station:WAVCIS:CSI09:1,2016-02-08T18:00:00Z,29.1015,-89.9782,12.04,11111222 
WAVCIS,ioos:station:WAVCIS:CSI09:1,2016-02-08T19:00:00Z,29.1015,-89.9782,12.4,11111222 
WAVCIS,ioos:station:WAVCIS:CSI09:1,2016-02-08T20:00:00Z,29.1015,-89.9782,12.79,11111222 
WAVCIS,ioos:station:WAVCIS:CSI09:1,2016-02-08T21:00:00Z,29.1015,-89.9782,12.78,11111222 
WAVCIS,ioos:station:WAVCIS:CSI09:1,2016-02-08T22:00:00Z,29.1015,-89.9782,13.59,11111222 
WAVCIS,ioos:station:WAVCIS:CSI09:1,2016-02-08T23:00:00Z,29.1015,-89.9782,13.94,11111222 
WAVCIS,ioos:station:WAVCIS:CSI09:1,2016-02-09T00:00:00Z,29.1015,-89.9782,13.43,11111222 
WAVCIS,ioos:station:WAVCIS:CSI09:1,2016-02-09T01:00:00Z,29.1015,-89.9782,13.0,11111222 
WAVCIS,ioos:station:WAVCIS:CSI09:1,2016-02-09T02:00:00Z,29.1015,-89.9782,12.42,11111222 
WAVCIS,ioos:station:WAVCIS:CSI09:1,2016-02-09T03:00:00Z,29.1015,-89.9782,11.79,11111222 
WAVCIS,ioos:station:WAVCIS:CSI09:1,2016-02-09T04:00:00Z,29.1015,-89.9782,11.11,11111222 
WAVCIS,ioos:station:WAVCIS:CSI09:1,2016-02-09T05:00:00Z,29.1015,-89.9782,10.74,11111222 
WAVCIS,ioos:station:WAVCIS:CSI09:1,2016-02-09T06:00:00Z,29.1015,-89.9782,10.48,11111222 
WAVCIS,ioos:station:WAVCIS:CSI09:1,2016-02-09T07:00:00Z,29.1015,-89.9782,10.5,11111222 
WAVCIS,ioos:station:WAVCIS:CSI09:1,2016-02-09T08:00:00Z,29.1015,-89.9782,10.19,11111222 
WAVCIS,ioos:station:WAVCIS:CSI09:1,2016-02-09T09:00:00Z,29.1015,-89.9782,9.93,11111222 
WAVCIS,ioos:station:WAVCIS:CSI09:1,2016-02-09T10:00:00Z,29.1015,-89.9782,9.53,11111222 
WAVCIS,ioos:station:WAVCIS:CSI09:1,2016-02-09T11:00:00Z,29.1015,-89.9782,9.18,11111222 
WAVCIS,ioos:station:WAVCIS:CSI09:1,2016-02-09T12:00:00Z,29.1015,-89.9782,8.91,11111222 
WAVCIS,ioos:station:WAVCIS:CSI09:1,2016-02-09T13:00:00Z,29.1015,-89.9782,8.27,11111222 
WAVCIS,ioos:station:WAVCIS:CSI09:1,2016-02-09T14:00:00Z,29.1015,-89.9782,7.87,11111222 
WAVCIS,ioos:station:WAVCIS:CSI09:1,2016-02-09T15:00:00Z,29.1015,-89.9782,7.2,11111222 
WAVCIS,ioos:station:WAVCIS:CSI09:1,2016-02-09T16:00:00Z,29.1015,-89.9782,7.24,11111222 
WAVCIS,ioos:station:WAVCIS:CSI09:1,2016-02-09T17:00:00Z,29.1015,-89.9782,7.65,11111222 
WAVCIS,ioos:station:WAVCIS:CSI09:1,2016-02-09T18:00:00Z,29.1015,-89.9782,8.62,11111222 
WAVCIS,ioos:station:WAVCIS:CSI09:1,2016-02-09T19:00:00Z,29.1015,-89.9782,9.26,11111222 
WAVCIS,ioos:station:WAVCIS:CSI09:1,2016-02-09T20:00:00Z,29.1015,-89.9782,9.81,11111222 
WAVCIS,ioos:station:WAVCIS:CSI09:1,2016-02-09T21:00:00Z,29.1015,-89.9782,10.62,11111222 
WAVCIS,ioos:station:WAVCIS:CSI09:1,2016-02-09T22:00:00Z,29.1015,-89.9782,11.18,11111222 
WAVCIS,ioos:station:WAVCIS:CSI09:1,2016-02-09T23:00:00Z,29.1015,-89.9782,10.92,11111222 
WAVCIS,ioos:station:WAVCIS:CSI09:1,2016-02-10T00:00:00Z,29.1015,-89.9782,11.17,11111222 
WAVCIS,ioos:station:WAVCIS:CSI09:1,2016-02-10T01:00:00Z,29.1015,-89.9782,11.48,11111222 
WAVCIS,ioos:station:WAVCIS:CSI09:1,2016-02-10T02:00:00Z,29.1015,-89.9782,11.88,11111222 
WAVCIS,ioos:station:WAVCIS:CSI09:1,2016-02-10T03:00:00Z,29.1015,-89.9782,12.42,11111222 
WAVCIS,ioos:station:WAVCIS:CSI09:1,2016-02-10T04:00:00Z,29.1015,-89.9782,12.56,11111222 
WAVCIS,ioos:station:WAVCIS:CSI09:1,2016-02-10T05:00:00Z,29.1015,-89.9782,12.32,11111222 
WAVCIS,ioos:station:WAVCIS:CSI09:1,2016-02-10T06:00:00Z,29.1015,-89.9782,12.27,11111222 
WAVCIS,ioos:station:WAVCIS:CSI09:1,2016-02-10T07:00:00Z,29.1015,-89.9782,12.19,11111222 
WAVCIS,ioos:station:WAVCIS:CSI09:1,2016-02-10T08:00:00Z,29.1015,-89.9782,11.25,11111222 
WAVCIS,ioos:station:WAVCIS:CSI09:1,2016-02-10T09:00:00Z,29.1015,-89.9782,10.58,11111222 
WAVCIS,ioos:station:WAVCIS:CSI09:1,2016-02-10T10:00:00Z,29.1015,-89.9782,10.05,11111222 
WAVCIS,ioos:station:WAVCIS:CSI09:1,2016-02-10T11:00:00Z,29.1015,-89.9782,9.44,11111222 
WAVCIS,ioos:station:WAVCIS:CSI09:1,2016-02-10T12:00:00Z,29.1015,-89.9782,8.83,11111222 
WAVCIS,ioos:station:WAVCIS:CSI09:1,2016-02-10T13:00:00Z,29.1015,-89.9782,8.29,11111222 
WAVCIS,ioos:station:WAVCIS:CSI09:1,2016-02-10T14:00:00Z,29.1015,-89.9782,8.22,11111222 
WAVCIS,ioos:station:WAVCIS:CSI09:1,2016-02-10T15:00:00Z,29.1015,-89.9782,7.98,11111222 
WAVCIS,ioos:station:WAVCIS:CSI09:1,2016-02-10T16:00:00Z,29.1015,-89.9782,8.01,11111222 
WAVCIS,ioos:station:WAVCIS:CSI09:1,2016-02-10T17:00:00Z,29.1015,-89.9782,8.1,11111222 
WAVCIS,ioos:station:WAVCIS:CSI09:1,2016-02-10T18:00:00Z,29.1015,-89.9782,8.37,11111222 
WAVCIS,ioos:station:WAVCIS:CSI09:1,2016-02-10T19:00:00Z,29.1015,-89.9782,9.45,11111222 
WAVCIS,ioos:station:WAVCIS:CSI09:1,2016-02-10T20:00:00Z,29.1015,-89.9782,11.14,11111222 
WAVCIS,ioos:station:WAVCIS:CSI09:1,2016-02-10T21:00:00Z,29.1015,-89.9782,9.96,11111222 
WAVCIS,ioos:station:WAVCIS:CSI09:1,2016-02-10T22:00:00Z,29.1015,-89.9782,10.54,11111222 
WAVCIS,ioos:station:WAVCIS:CSI09:1,2016-02-10T23:00:00Z,29.1015,-89.9782,10.56,11111222 
WAVCIS,ioos:station:WAVCIS:CSI09:1,2016-02-11T00:00:00Z,29.1015,-89.9782,10.34,11111222 
WAVCIS,ioos:station:WAVCIS:CSI09:1,2016-02-11T01:00:00Z,29.1015,-89.9782,10.65,11111222 
WAVCIS,ioos:station:WAVCIS:CSI09:1,2016-02-11T02:00:00Z,29.1015,-89.9782,11.16,11111222 
WAVCIS,ioos:station:WAVCIS:CSI09:1,2016-02-11T03:00:00Z,29.1015,-89.9782,11.76,11111222 
WAVCIS,ioos:station:WAVCIS:CSI09:1,2016-02-11T04:00:00Z,29.1015,-89.9782,11.85,11111222 
WAVCIS,ioos:station:WAVCIS:CSI09:1,2016-02-11T05:00:00Z,29.1015,-89.9782,12.02,11111222 
WAVCIS,ioos:station:WAVCIS:CSI09:1,2016-02-11T06:00:00Z,29.1015,-89.9782,12.35,11111222 
WAVCIS,ioos:station:WAVCIS:CSI09:1,2016-02-11T07:00:00Z,29.1015,-89.9782,12.78,11111222 
WAVCIS,ioos:station:WAVCIS:CSI09:1,2016-02-11T08:00:00Z,29.1015,-89.9782,13.22,11111222 
WAVCIS,ioos:station:WAVCIS:CSI09:1,2016-02-11T09:00:00Z,29.1015,-89.9782,13.46,11111222 
WAVCIS,ioos:station:WAVCIS:CSI09:1,2016-02-11T10:00:00Z,29.1015,-89.9782,13.74,11111222 
WAVCIS,ioos:station:WAVCIS:CSI09:1,2016-02-11T11:00:00Z,29.1015,-89.9782,14.08,11111222 
WAVCIS,ioos:station:WAVCIS:CSI09:1,2016-02-11T12:00:00Z,29.1015,-89.9782,14.19,11111222 
WAVCIS,ioos:station:WAVCIS:CSI09:1,2016-02-11T13:00:00Z,29.1015,-89.9782,14.21,11111222 
WAVCIS,ioos:station:WAVCIS:CSI09:1,2016-02-11T14:00:00Z,29.1015,-89.9782,-9999.0,1111122 
WAVCIS,ioos:station:WAVCIS:CSI09:1,2016-02-11T15:00:00Z,29.1015,-89.9782,-9999.0,1111122 
WAVCIS,ioos:station:WAVCIS:CSI09:1,2016-02-11T16:00:00Z,29.1015,-89.9782,-9999.0,1111122 
WAVCIS,ioos:station:WAVCIS:CSI09:1,2016-02-11T17:00:00Z,29.1015,-89.9782,-9999.0,1111122 
WAVCIS,ioos:station:WAVCIS:CSI09:1,2016-02-11T18:00:00Z,29.1015,-89.9782,-9999.0,1111122 
WAVCIS,ioos:station:WAVCIS:CSI09:1,2016-02-11T19:00:00Z,29.1015,-89.9782,-9999.0,1111122 
WAVCIS,ioos:station:WAVCIS:CSI09:1,2016-02-11T20:00:00Z,29.1015,-89.9782,-9999.0,1111122 
WAVCIS,ioos:station:WAVCIS:CSI09:1,2016-02-11T21:00:00Z,29.1015,-89.9782,-9999.0,1111122 
WAVCIS,ioos:station:WAVCIS:CSI09:1,2016-02-11T22:00:00Z,29.1015,-89.9782,-9999.0,1111122 
WAVCIS,ioos:station:WAVCIS:CSI09:1,2016-02-11T23:00:00Z,29.1015,-89.9782,-9999.0,1111122 
WAVCIS,ioos:station:WAVCIS:CSI09:1,2016-02-12T00:00:00Z,29.1015,-89.9782,-9999.0,1111122 
WAVCIS,ioos:station:WAVCIS:CSI09:1,2016-02-12T01:00:00Z,29.1015,-89.9782,-9999.0,1111122 
WAVCIS,ioos:station:WAVCIS:CSI09:1,2016-02-12T02:00:00Z,29.1015,-89.9782,-9999.0,1111122 
WAVCIS,ioos:station:WAVCIS:CSI09:1,2016-02-12T03:00:00Z,29.1015,-89.9782,-9999.0,1111122 
WAVCIS,ioos:station:WAVCIS:CSI09:1,2016-02-12T04:00:00Z,29.1015,-89.9782,-9999.0,1111122 